Location: Aulagny
(45.1643°N, 4.3096°E)
Time: 10:30:47
(UTC+00:00)

STARLINK-43 - Pass Details

Date: 21 October 2019
Orbit: 478 x 480 km, 53.0° (Epoch: 17 November)

Event Time Altitude Azimuth Distance (km) Brightness Sun altitude
Rises 18:32:37 0° 303° (WNW) 2,539 8.1 -19.1°
Reaches altitude 10° 18:34:50 10° 309° (NW) 1,659 6.8 -19.5°
Maximum altitude 18:38:27 45° 24° (NNE) 661 3.8 -20.1°
Enters shadow 18:38:28 45° 25° (NNE) 661 3.8 -20.1°
